Lamar, CO

4:11 AM MST on December 12, 2017 (GMT -0700)
Lamar Municipal

Weather History for KLAA - March, 2013

Change the Weather History Date:

Monday, March 4, 2013

  Actual Average Record
Temperature  
Mean Temperature 36 °F 38 °F  
Max Temperature 53 °F 55 °F 81 °F (1921)
Min Temperature 18 °F 22 °F -10 °F (1948)
Degree Days  
Heating Degree Days 29 27  
Month to date heating degree days 89 109  
Since 1 July heating degree days 4188 4420  
Cooling Degree Days 0 0  
Month to date cooling degree days 0 0  
Year to date cooling degree days 0 0  
Moisture  
Dew Point 25 °F    
Average Humidity 65    
Maximum Humidity 100    
Minimum Humidity 30    
Precipitation  
Precipitation 0.01 in 0.03 in 0.74 in (1958)
Month to date precipitation 0.01  
Year to date precipitation 0.13  
Sea Level Pressure  
Sea Level Pressure 29.92 in    
Wind  
Wind Speed 10 mph (North)    
Max Wind Speed 32 mph    
Max Gust Speed 43 mph    
Visibility 7 miles    
Events Snow    
T = Trace of Precipitation, MM = Missing Value Source: NWS Daily Summary

Daily Weather History Graph

Daily Weather History Graph

Search for Another Location

Airport or City:

Trip Planner

Search our weather history database for the weather conditions in past years. The results will help you decide how hot, cold, wet, or windy it might be!

Date:

Astronomy

Mar. 04, 2013 Rise Set
Actual Time 6:17 AM MST 5:47 PM MST
Civil Twilight 5:51 AM MST 6:13 PM MST
Nautical Twilight 5:20 AM MST 6:44 PM MST
Astronomical Twilight 4:50 AM MST 7:14 PM MST
Moon 12:25 AM MST (3/4) 10:35 AM MST (3/4)
Length of Visible Light 12h 22m
Length of Day
11h 29m
Waning Gibbous, 51% of the Moon is Illuminated
Mar 4
Waning Gibbous
Mar 4
Last Quarter
Mar 11
New
Mar 19
First Quarter
Mar 27
Full

Hourly Weather History & Observations

Time (MST) Temp. Windchill Dew Point Humidity Pressure Visibility Wind Dir Wind Speed Gust Speed Precip Events Conditions
12:53 AM 30.9 °F - 19.0 °F 61% 29.58 in 10.0 mi Calm Calm - N/A   Clear
1:53 AM 27.0 °F 19.5 °F 17.1 °F 66% 29.58 in 10.0 mi WSW 6.9 mph - N/A   Clear
2:53 AM 30.9 °F - 17.1 °F 57% 29.57 in 10.0 mi Calm Calm - N/A   Clear
3:53 AM 30.9 °F 26.2 °F 21.0 °F 67% 29.59 in 10.0 mi West 4.6 mph - N/A   Clear
4:53 AM 28.9 °F 23.9 °F 19.9 °F 69% 29.62 in 10.0 mi WSW 4.6 mph - N/A   Clear
5:53 AM 30.0 °F 25.2 °F 19.9 °F 66% 29.66 in 10.0 mi NW 4.6 mph - N/A   Clear
6:53 AM 30.9 °F 24.3 °F 23.0 °F 72% 29.71 in 10.0 mi South 6.9 mph - N/A   Clear
7:53 AM 43.0 °F 35.1 °F 28.9 °F 58% 29.74 in 10.0 mi NNE 17.3 mph 20.7 mph N/A   Clear
8:53 AM 44.1 °F 35.7 °F 27.0 °F 51% 29.74 in 10.0 mi ENE 20.7 mph 25.3 mph N/A   Scattered Clouds
9:53 AM 46.9 °F - 25.0 °F 42% 29.76 in 10.0 mi ENE 13.8 mph - N/A   Clear
10:53 AM 48.9 °F - 25.0 °F 39% 29.77 in 10.0 mi NE 11.5 mph 16.1 mph N/A   Scattered Clouds
11:53 AM 51.1 °F - 24.1 °F 35% 29.77 in 10.0 mi NE 6.9 mph 16.1 mph N/A   Clear
12:53 PM 52.0 °F - 23.0 °F 32% 29.76 in 10.0 mi NNE 9.2 mph 20.7 mph N/A   Clear
1:53 PM 51.1 °F - 21.9 °F 32% 29.79 in 10.0 mi NE 10.4 mph 17.3 mph N/A   Scattered Clouds
2:53 PM 46.9 °F - 21.9 °F 37% 29.83 in 10.0 mi NNE 21.9 mph 28.8 mph N/A   Overcast
3:53 PM 39.0 °F 27.0 °F 25.0 °F 57% 29.94 in 8.0 mi North 31.1 mph 39.1 mph N/A   Overcast
4:53 PM 35.1 °F 23.8 °F 27.0 °F 72% 30.04 in 10.0 mi NNE 20.7 mph 29.9 mph N/A   Overcast
5:53 PM 32.0 °F 22.1 °F 28.9 °F 88% 30.11 in 3.0 mi North 13.8 mph - 0.00 in Snow Light Snow
6:11 PM 32.0 °F 24.2 °F 28.4 °F 87% 30.08 in 2.5 mi NNE 9.2 mph - 0.00 in Snow Light Snow
6:20 PM 32.0 °F 23.0 °F 30.2 °F 93% 30.09 in 1.8 mi North 11.5 mph - 0.00 in Snow Light Snow
6:23 PM 32.0 °F 23.0 °F 30.2 °F 93% 30.09 in 2.0 mi North 11.5 mph - 0.00 in Snow Light Snow
6:34 PM 32.0 °F 20.8 °F 28.4 °F 87% 30.09 in 1.2 mi North 17.3 mph 21.9 mph 0.00 in Snow Light Snow
6:39 PM 30.2 °F 18.1 °F 28.4 °F 93% 30.10 in 1.0 mi North 18.4 mph 28.8 mph 0.00 in Snow Light Snow
6:46 PM 30.2 °F 20.8 °F 28.4 °F 93% 30.13 in 0.8 mi North 11.5 mph - 0.00 in Snow Light Snow
6:53 PM 30.0 °F 20.0 °F 28.9 °F 96% 30.18 in 1.0 mi North 12.7 mph - 0.00 in Snow Light Snow
7:11 PM 30.2 °F 19.8 °F 28.4 °F 93% 30.10 in 1.2 mi North 13.8 mph 24.2 mph 0.01 in Snow Light Snow
7:25 PM 30.2 °F 22.6 °F 28.4 °F 93% 30.13 in 4.0 mi North 8.1 mph - 0.01 in Snow Light Snow
7:53 PM 30.0 °F 26.5 °F 28.0 °F 92% 30.17 in 10.0 mi WNW 3.5 mph - 0.01 in   Overcast
8:53 PM 28.9 °F 22.8 °F 26.1 °F 89% 30.22 in 10.0 mi West 5.8 mph - N/A   Scattered Clouds
9:53 PM 25.0 °F 16.3 °F 23.0 °F 92% 30.25 in 10.0 mi WNW 8.1 mph - N/A   Clear
10:53 PM 21.9 °F 13.4 °F 21.0 °F 96% 30.26 in 10.0 mi NW 6.9 mph - N/A   Clear